CW1490 Weather Reports


Display with metric or nautical units.
time (UTC)temp
F
wind
direction
speed
MPH
gust
MPH
rain 1hr
in
rain 24hr
in
rain mn
in
humidity
%
barometer
mb
20150903042111 65 278 0.0 0.0 0.00 0.01 0.00 97 1011.1
20150903040610 65 278 0.0 0.0 0.00 0.01 0.00 96 1011.0
20150903032108 65 278 0.0 0.0 0.00 0.01 0.01 96 1011.1
20150903030608 66 278 0.0 0.0 0.00 0.01 0.01 96 1011.1
20150903022105 66 278 0.0 0.0 0.00 0.01 0.01 95 1010.9
20150903020604 67 278 0.0 0.0 0.00 0.01 0.01 95 1010.8
20150903012104 67 278 0.0 0.0 0.00 0.01 0.01 94 1010.9
20150903005102 68 278 0.0 0.0 0.00 0.01 0.01 93 1011.0
20150903003602 69 278 0.0 0.0 0.00 0.01 0.01 92 1011.1
20150903002102 70 278 0.0 0.0 0.00 0.01 0.01 91 1010.9
20150903000601 70 278 0.0 0.0 0.00 0.01 0.01 91 1010.7
20150902232100 74 278 0.0 3.0 0.00 0.01 0.01 85 1010.4
20150902230759 75 278 1.0 3.0 0.00 0.01 0.01 84 1010.3
20150902225058 77 283 0.0 2.0 0.00 0.01 0.01 83 1010.3
20150902222057 79 283 0.0 0.0 0.00 0.01 0.01 74 1010.5
20150902215056 83 283 0.0 1.0 0.00 0.01 0.01 68 1010.5
20150902213554 85 283 0.0 1.0 0.00 0.01 0.01 62 1010.6
20150902212053 86 216 0.0 2.0 0.00 0.01 0.01 63 1010.7
20150902210553 87 216 0.0 2.0 0.00 0.01 0.01 63 1010.7
20150902205052 87 193 1.0 4.0 0.00 0.01 0.01 59 1010.7
20150902203549 87 194 0.0 3.0 0.00 0.01 0.01 61 1010.9
20150902202047 88 195 1.0 4.0 0.00 0.01 0.01 58 1011.1
20150902193542 87 120 1.0 5.0 0.00 0.01 0.01 61 1011.5
20150902192040 87 179 3.0 8.0 0.00 0.01 0.01 61 1011.7
20150902190537 87 210 2.0 6.0 0.00 0.01 0.01 62 1011.8
20150902185036 87 197 3.0 7.0 0.00 0.01 0.01 59 1012.0
20150902182029 85 212 3.0 8.0 0.00 0.01 0.01 62 1012.4
20150902180527 85 307 2.0 6.0 0.00 0.01 0.01 59 1012.5
20150902172020 83 53 4.0 5.0 0.00 0.01 0.01 65 1012.8
20150902170516 82 31 1.0 3.0 0.00 0.01 0.01 64 1013.0
20150902160504 79 178 2.0 4.0 0.00 0.01 0.01 72 1013.9
20150902155200 77 127 0.0 3.0 0.00 0.01 0.01 76 1014.1
20150902153456 77 219 0.0 4.0 0.00 0.01 0.01 77 1014.3
20150902151952 75 217 1.0 3.0 0.00 0.01 0.01 81 1014.4
20150902141936 68 132 2.0 4.0 0.00 0.01 0.01 93 1014.8
20150902140431 66 87 1.0 4.0 0.00 0.01 0.01 97 1015.0
20150902133425 64 195 2.0 5.0 0.00 0.01 0.01 98 1015.2
20150902124917 62 244 0.0 0.0 0.00 0.01 0.01 98 1015.5
20150902123416 62 244 0.0 0.0 0.00 0.01 0.01 98 1015.7
20150902121914 62 236 0.0 0.0 0.00 0.01 0.01 98 1015.6
20150902104902 60 226 0.0 0.0 0.00 0.01 0.01 98 1015.7
20150902100359 60 225 0.0 0.0 0.00 0.01 0.01 98 1015.5
20150902094858 60 225 0.0 3.0 0.00 0.01 0.01 98 1015.4
20150902093357 60 225 0.0 3.0 0.00 0.01 0.01 98 1015.4
20150902090355 61 225 0.0 0.0 0.01 0.01 0.01 98 1015.4
20150902083552 60 225 0.0 0.0 0.01 0.02 0.01 98 1015.5
20150902080351 61 225 0.0 0.0 0.00 0.01 0.00 98 1015.6
20150902074849 61 225 0.0 0.0 0.00 0.01 0.00 98 1015.7
20150902073349 61 225 0.0 0.0 0.00 0.01 0.00 98 1015.7
20150902071848 61 225 0.0 3.0 0.00 0.01 0.00 97 1015.8
20150902070348 61 225 0.0 0.0 0.00 0.01 0.00 97 1015.9
20150902053341 61 225 0.0 0.0 0.00 0.01 0.00 97 1016.1
20150902050339 61 225 0.0 0.0 0.00 0.01 0.00 97 1016.3
20150902044838 61 225 0.0 0.0 0.00 0.01 0.00 97 1016.4
20150902043337 61 225 0.0 0.0 0.00 0.01 0.00 97 1016.4